Theta_e
331 331 329 329 329 328 327 325 323 319 317 321 321 320 320 319 319 318 317 317 317 316 317 316 316 316 316 316 317 316 315 314 313 314 314 315 315 314
328 328 329 328 327 326 326 325 324 322 318 322 321 319 316 314 314 314 313 312 310 310 311 312 313 314 316 316 316 316 315 314 313 312 312 312 312 314
327 328 327 327 326 325 324 323 322 321 320 319 318 315 312 311 310 309 307 307 307 307 308 309 310 310 312 314 315 314 314 313 312 312 311 311 311 312
327 326 326 325 324 323 322 320 320 319 318 315 313 311 311 307 305 304 304 303 303 304 305 306 307 309 310 311 312 312 312 312 312 311 310 310 310 310
327 326 325 324 322 319 318 317 315 315 314 311 308 306 306 304 303 302 302 303 302 303 303 305 306 307 307 308 309 309 309 310 310 310 309 309 309 308
326 325 325 322 319 317 315 312 309 307 307 307 306 306 303 302 301 301 300 301 302 302 302 303 305 305 305 305 306 306 307 307 308 308 307 307 307 307
325 325 322 320 319 316 312 307 306 306 306 305 304 302 301 301 300 299 298 297 299 300 301 302 303 303 303 304 304 304 305 305 306 305 305 305 305 305
321 319 318 317 315 309 306 306 305 305 304 303 302 300 300 300 299 298 297 296 297 298 298 299 299 300 301 302 302 303 303 303 303 302 302 302 302 302
318 317 314 311 309 306 305 305 304 304 303 303 302 301 300 299 298 296 295 295 295 297 297 297 298 299 299 299 300 300 301 300 300 299 299 299 299 299
316 315 313 308 305 305 304 304 303 302 301 300 299 299 298 297 296 295 294 293 294 295 295 294 296 297 297 297 298 298 298 298 298 297 297 296 296 295
313 312 310 306 304 304 304 303 301 299 298 298 298 297 296 295 294 292 291 292 293 294 293 293 294 294 295 295 296 297 297 297 296 296 295 294 293 293
306 304 304 304 303 303 302 301 300 299 298 297 296 295 294 293 291 290 289 289 290 291 292 292 292 292 293 293 291 294 296 296 295 295 294 294 293 291
305 303 303 302 302 301 301 301 300 299 297 296 295 294 293 291 290 288 286 286 287 288 290 291 291 291 291 290 292 292 290 290 291 291 292 293 293 293
304 303 302 301 301 300 300 300 299 298 297 296 294 293 292 290 289 287 286 285 284 285 285 288 289 289 289 289 291 290 289 288 288 290 291 292 292 292
303 303 303 302 300 299 299 298 297 297 296 295 294 292 291 289 288 287 285 284 284 284 284 284 284 285 287 287 287 288 287 287 286 288 290 291 291 290
302 301 301 299 298 298 297 296 296 295 296 295 294 293 290 289 289 286 285 284 284 284 284 285 284 284 284 285 285 285 285 285 286 286 287 289 289 289
299 298 297 297 296 296 295 295 295 294 294 294 293 292 290 290 289 287 285 285 284 284 284 284 285 285 284 283 283 284 284 284 285 285 286 286 286 288
297 296 295 295 295 295 294 295 295 294 293 294 293 291 290 289 288 287 286 285 285 285 284 284 285 284 283 284 284 284 284 283 284 285 285 285 285 286
297 296 296 295 295 295 295 295 295 295 295 294 293 292 291 289 288 288 287 286 286 285 285 284 285 284 282 279 284 285 285 285 284 284 285 285 285 285
297 296 295 295 295 295 295 295 295 295 294 293 293 293 292 290 289 288 288 287 286 286 285 285 285 285 282 281 284 285 284 284 283 283 284 284 284 284
296 295 296 295 295 296 296 295 295 294 294 293 293 292 292 290 289 289 289 288 287 286 285 286 286 285 285 284 282 283 284 284 283 283 283 283 283 284
295 295 295 296 295 295 295 295 294 294 294 293 292 292 292 291 290 289 289 288 288 287 287 287 286 285 285 284 283 282 284 284 283 283 284 283 283 284
295 295 294 294 294 295 295 294 294 294 293 293 292 291 291 290 289 289 288 288 287 286 285 286 286 285 285 285 284 283 284 284 283 283 283 283 283 284
Wind_Speed
28 26 24 22 18 15 16 19 11 3 3 3 2 4 4 3 2 4 5 8 10 10 9 7 7 6 6 8 6 7 5 3 3 4 6 7 8 7
30 27 25 20 18 17 18 18 17 17 4 4 2 1 3 4 4 6 7 7 9 8 8 8 7 8 8 8 7 8 6 5 1 1 3 3 2 8
27 26 23 23 21 19 19 18 15 12 7 5 4 3 2 1 4 8 10 12 11 10 7 8 10 10 9 8 10 7 10 8 6 5 4 6 8 10
29 26 26 23 21 19 19 17 15 13 9 8 5 5 5 5 7 7 8 10 8 8 8 7 9 10 10 9 10 9 7 10 8 8 9 8 10 9
29 27 25 22 21 20 17 17 15 12 8 7 7 5 4 5 8 5 6 6 8 10 11 9 9 10 10 11 11 11 11 10 9 11 10 9 11 8
25 25 25 24 23 18 15 13 15 14 10 8 4 2 3 5 8 8 9 9 10 7 8 10 11 10 10 9 9 8 9 9 11 12 9 10 12 11
24 23 25 22 17 15 17 18 13 12 10 8 4 3 3 4 4 6 10 14 12 4 5 5 7 7 7 7 9 7 7 9 10 9 9 9 11 11
28 24 23 19 18 18 17 14 10 12 11 8 6 4 5 5 6 7 8 5 4 5 12 11 8 7 6 7 9 9 8 10 11 11 11 11 12 12
27 26 22 21 21 20 16 13 11 9 7 7 9 7 5 7 7 7 7 6 7 10 12 8 6 5 5 9 9 9 10 10 11 10 10 11 11 12
26 24 23 22 21 19 18 14 10 9 9 10 7 5 5 6 8 7 6 7 9 9 5 5 6 7 5 7 12 12 11 10 11 11 11 10 10 10
21 20 20 22 22 19 15 15 14 13 11 7 4 4 5 6 5 5 4 3 3 3 4 3 5 8 6 6 6 12 14 14 13 11 11 11 12 11
17 17 17 17 16 16 17 18 17 15 12 9 7 5 5 4 4 5 6 6 4 3 4 3 4 4 2 3 4 4 9 12 13 14 13 12 13 13
19 18 17 18 19 19 17 16 13 12 13 10 7 7 8 6 5 5 5 5 6 7 4 3 2 3 3 3 5 5 6 7 9 12 13 13 14 13
28 22 21 22 21 22 21 17 16 15 14 12 11 11 10 9 7 7 7 6 7 8 9 9 5 6 4 4 3 4 6 8 10 9 11 13 12 12
25 27 27 26 24 22 20 20 18 16 15 16 15 12 9 7 8 9 9 8 8 8 9 7 11 12 10 7 4 5 8 7 11 10 10 13 15 16
19 21 24 26 26 23 20 19 20 17 17 16 13 9 9 10 9 7 8 8 8 8 4 5 7 11 12 13 15 17 15 10 4 6 10 15 17 18
20 22 22 23 23 22 22 21 20 18 17 15 14 14 14 12 10 9 10 8 8 6 7 8 8 10 13 14 15 15 15 16 16 16 13 13 17 19
25 26 24 26 26 27 25 22 21 20 19 18 17 17 17 17 14 13 13 11 10 9 10 7 9 6 9 9 13 11 11 13 13 11 12 13 16 12
26 26 25 27 27 28 27 26 25 23 20 21 20 20 20 19 17 16 15 15 12 13 12 8 9 7 3 2 5 6 6 8 7 10 13 15 18 15
26 26 26 27 27 27 27 27 25 22 21 21 20 19 19 20 19 19 17 17 15 14 14 12 13 16 11 5 4 4 6 9 10 13 12 12 16 17
26 26 27 26 26 25 23 22 21 21 19 19 20 20 20 19 20 18 16 15 14 15 15 15 10 8 10 10 7 8 8 7 9 12 11 10 13 10
25 26 26 24 21 21 20 17 16 15 16 18 19 20 20 20 19 17 14 14 15 17 18 16 12 10 13 14 11 11 14 14 9 10 12 13 9 4
25 23 19 17 16 17 16 15 15 16 17 18 19 20 19 19 17 15 13 13 12 13 13 12 11 11 13 15 13 14 17 18 17 16 16 15 18 20
Wind_Direction
194 193 194 195 205 205 197 189 162 156 229 152 136 86 43 1 329 316 305 308 309 311 308 307 303 280 284 293 272 266 292 333 8 55 77 102 125 146
194 191 192 197 191 190 195 199 202 147 156 178 144 313 300 293 297 295 304 310 316 316 312 303 296 291 279 273 250 257 280 243 203 102 85 119 155 166
191 192 198 193 192 190 192 195 184 169 146 155 168 198 166 268 312 312 309 299 296 300 288 286 287 279 271 248 222 233 226 214 205 200 178 177 179 179
191 195 195 195 197 196 188 194 188 171 159 165 169 189 213 296 311 321 329 332 334 327 302 280 270 270 265 261 244 226 214 213 216 221 206 192 189 197
195 195 198 202 199 194 192 184 190 155 163 168 181 205 234 287 311 330 347 334 339 331 304 307 288 274 274 266 265 255 249 241 235 217 207 200 194 208
200 206 205 199 194 186 190 189 176 139 156 174 186 221 278 296 329 342 331 330 330 314 316 296 286 275 268 270 267 257 240 228 220 214 210 206 209 215
205 207 198 193 184 204 192 188 160 149 166 171 175 213 263 299 330 326 317 327 326 340 334 336 300 281 267 253 240 241 225 211 211 219 212 202 207 214
190 185 188 188 184 190 183 180 168 169 170 183 189 223 248 262 279 281 302 324 325 305 330 320 309 287 265 238 226 226 226 226 223 223 221 216 219 226
184 180 178 180 184 182 178 177 179 181 188 205 208 218 235 242 256 267 280 267 269 299 315 297 328 320 270 245 232 233 237 234 236 233 228 232 227 225
190 187 187 184 185 185 182 175 175 177 185 190 191 187 219 250 262 267 264 280 281 283 271 271 317 331 321 258 234 231 227 231 231 233 232 231 237 228
194 193 195 192 187 188 182 178 179 183 181 182 188 217 245 259 257 258 268 271 289 262 294 284 311 315 302 292 258 237 229 227 233 238 241 242 240 239
185 188 192 194 193 193 191 194 188 190 188 190 204 226 235 248 262 249 238 206 230 251 212 213 279 325 331 347 355 258 244 242 235 236 235 243 246 238
189 189 196 194 197 195 197 204 206 200 196 204 211 224 234 245 255 261 256 247 231 246 242 230 267 311 273 301 330 319 278 253 244 243 232 230 243 240
189 193 202 198 196 201 202 202 201 199 199 206 207 213 221 229 236 255 262 264 262 267 266 261 250 235 230 281 265 302 307 294 269 254 237 230 230 235
200 196 195 201 201 204 208 202 199 203 201 205 212 211 218 234 237 247 261 268 266 260 260 252 261 257 250 236 249 253 303 280 295 258 233 234 240 240
210 206 197 197 202 200 194 198 205 210 211 214 217 218 216 225 236 249 260 266 280 285 260 279 270 268 257 253 259 265 260 267 264 305 262 246 246 248
196 191 190 191 193 193 198 201 203 206 211 213 220 221 218 221 235 242 243 246 245 269 296 276 272 281 278 268 264 266 274 265 270 275 275 274 258 245
193 188 195 198 198 200 200 200 205 210 215 217 220 220 224 225 228 231 239 238 245 266 264 262 263 270 308 283 258 281 286 282 271 268 267 270 276 263
199 200 203 204 207 208 209 210 212 215 219 219 220 223 225 226 224 226 236 243 250 259 270 258 251 236 272 267 293 296 289 315 297 273 263 255 267 278
204 206 208 208 211 214 216 216 217 216 215 220 222 226 230 230 226 229 232 242 248 259 262 258 244 235 214 232 313 272 295 297 292 281 274 283 279 281
208 210 215 218 221 223 221 216 214 215 218 221 226 231 231 230 232 233 235 241 246 248 253 258 268 265 260 265 266 274 309 299 289 278 279 287 280 282
213 215 221 223 217 214 213 211 213 223 229 232 234 235 234 231 232 233 234 234 237 243 255 271 272 251 230 227 249 267 287 299 299 287 276 262 248 257
227 224 221 217 219 217 214 214 219 229 237 241 243 240 233 229 229 234 237 239 244 250 254 262 261 249 247 248 254 268 286 292 299 294 279 269 269 268